Pensacola, FL

5:36 AM CDT on May 28, 2018 (GMT -0500)
Pensacola Regional

Weather History for KPNS - July, 2013

Change the Weather History Date:

Sunday, July 7, 2013

  Actual Average Record
Temperature  
Mean Temperature 79 °F 82 °F  
Max Temperature 83 °F 90 °F 100 °F (1980)
Min Temperature 75 °F 75 °F 66 °F (1882)
Cooling Degree Days 14 17  
Month to date cooling degree days 98 119  
Year to date cooling degree days 1054 1032  
Since 1 June cooling degree days 612 584  
Growing Degree Days 28 (Base 50)    
Moisture  
Dew Point 74 °F    
Average Humidity 87    
Maximum Humidity 94    
Minimum Humidity 79    
Precipitation  
Precipitation 1.72 in 0.23 in 5.01 in (1896)
Month to date precipitation 8.89 1.65  
Year to date precipitation 39.28 32.25  
Sea Level Pressure  
Sea Level Pressure 30.09 in    
Wind  
Wind Speed 5 mph (East)    
Max Wind Speed 21 mph    
Max Gust Speed 25 mph    
Visibility 8 miles    
Events Rain    
T = Trace of Precipitation, MM = Missing Value Source: NWS Daily Summary

Daily Weather History Graph

Daily Weather History Graph

Search for Another Location

Airport or City:

Astronomy

Jul. 07, 2013 Rise Set
Actual Time 5:52 AM CDT 7:54 PM CDT
Civil Twilight 5:25 AM CDT 8:21 PM CDT
Nautical Twilight 4:52 AM CDT 8:54 PM CDT
Astronomical Twilight 4:16 AM CDT 9:30 PM CDT
Moon 5:24 AM CDT (7/7) 7:23 PM CDT (7/7)
Length of Visible Light 14h 56m
Length of Day
14h 01m
Waning Crescent, 0% of the Moon is Illuminated
Jul 7
Waning Crescent
Jul 8
New
Jul 15
First Quarter
Jul 22
Full
Jul 29
Last Quarter

Hourly Weather History & Observations

Time (CDT) Temp. Heat Index Dew Point Humidity Pressure Visibility Wind Dir Wind Speed Gust Speed Precip Events Conditions
12:53 AM 78.1 °F - 73.9 °F 87% 30.06 in 10.0 mi SSE 6.9 mph - N/A   Partly Cloudy
1:53 AM 78.1 °F - 73.9 °F 87% 30.05 in 10.0 mi SSE 4.6 mph - N/A   Clear
2:53 AM 77.0 °F - 73.0 °F 88% 30.04 in 10.0 mi South 4.6 mph - N/A   Partly Cloudy
3:53 AM 77.0 °F - 73.0 °F 88% 30.04 in 10.0 mi SE 3.5 mph - N/A   Partly Cloudy
4:27 AM 77.0 °F - 73.4 °F 89% 30.04 in 10.0 mi Calm Calm - N/A   Mostly Cloudy
4:53 AM 77.0 °F - 73.9 °F 90% 30.04 in 10.0 mi NE 5.8 mph - N/A   Overcast
5:41 AM 75.2 °F - 73.4 °F 94% 30.04 in 1.8 mi NNE 4.6 mph - 0.07 in Rain Heavy Rain
5:53 AM 75.9 °F - 73.9 °F 94% 30.06 in 4.0 mi NNE 5.8 mph - 0.27 in Rain Light Rain
6:01 AM 75.2 °F - 73.4 °F 94% 30.06 in 1.8 mi NNE 3.5 mph - 0.06 in Rain Heavy Rain
6:07 AM 75.2 °F - 73.4 °F 94% 30.06 in 0.8 mi North 3.5 mph - 0.16 in Rain Heavy Rain
6:16 AM 75.2 °F - 73.4 °F 94% 30.06 in 2.0 mi Calm Calm - 0.24 in Rain Light Rain
6:24 AM 75.2 °F - 73.4 °F 94% 30.06 in 9.0 mi NE 4.6 mph - 0.24 in Rain Light Rain
6:32 AM 75.2 °F - 73.4 °F 94% 30.06 in 10.0 mi ENE 3.5 mph - 0.24 in Rain Light Rain
6:53 AM 75.9 °F - 73.0 °F 91% 30.07 in 10.0 mi NNE 3.5 mph - 0.25 in Rain Light Rain
7:03 AM 75.2 °F - 73.4 °F 94% 30.07 in 10.0 mi NE 3.5 mph - 0.00 in   Mostly Cloudy
7:19 AM 75.2 °F - 73.4 °F 94% 30.08 in 9.0 mi NE 3.5 mph - 0.00 in   Scattered Clouds
7:24 AM 75.2 °F - 73.4 °F 94% 30.07 in 9.0 mi NE 3.5 mph - 0.00 in   Mostly Cloudy
7:53 AM 75.9 °F - 73.9 °F 94% 30.09 in 9.0 mi Calm Calm - 0.00 in   Overcast
8:25 AM 77.0 °F - 73.4 °F 89% 30.09 in 10.0 mi ENE 3.5 mph - N/A   Mostly Cloudy
8:53 AM 78.1 °F - 75.0 °F 90% 30.10 in 10.0 mi East 4.6 mph - N/A   Mostly Cloudy
9:01 AM 78.8 °F - 75.2 °F 89% 30.10 in 4.0 mi East 6.9 mph - 0.00 in Rain Light Rain
9:11 AM 77.0 °F - 73.4 °F 89% 30.10 in 2.0 mi East 8.1 mph - 0.05 in Rain Rain
9:21 AM 75.2 °F - 73.4 °F 94% 30.11 in 1.0 mi NE 3.5 mph - 0.16 in Rain Heavy Rain
9:53 AM 75.9 °F - 73.9 °F 94% 30.11 in 4.0 mi North 3.5 mph - 0.46 in Rain Light Rain
10:17 AM 77.0 °F - 73.4 °F 89% 30.11 in 10.0 mi ENE 3.5 mph - 0.00 in   Overcast
10:25 AM 77.0 °F - 75.2 °F 94% 30.10 in 10.0 mi Calm Calm - 0.00 in Rain Light Rain
10:39 AM 78.8 °F - 75.2 °F 89% 30.11 in 6.0 mi South 17.3 mph 47.2 mph 0.01 in Rain Light Rain
10:53 AM 79.0 °F - 75.9 °F 90% 30.11 in 10.0 mi Calm Calm - 0.02 in   Overcast
11:09 AM 80.6 °F 86.2 °F 75.2 °F 84% 30.11 in 10.0 mi East 5.8 mph - N/A   Mostly Cloudy
11:53 AM 82.9 °F 91.8 °F 77.0 °F 82% 30.11 in 10.0 mi ESE 10.4 mph - N/A   Mostly Cloudy
12:00 PM 82.4 °F 89.5 °F 75.2 °F 79% 30.10 in 10.0 mi ESE 10.4 mph - N/A   Mostly Cloudy
12:08 PM 82.4 °F 89.5 °F 75.2 °F 79% 30.10 in 7.0 mi SE 10.4 mph - 0.00 in Rain Light Rain
12:22 PM 80.6 °F 86.2 °F 75.2 °F 84% 30.10 in 9.0 mi SE 11.5 mph - 0.01 in Rain Light Rain
12:31 PM 80.6 °F 86.2 °F 75.2 °F 84% 30.10 in 10.0 mi ESE 11.5 mph - 0.01 in   Mostly Cloudy
12:53 PM 81.0 °F 87.3 °F 75.9 °F 85% 30.11 in 10.0 mi SE 10.4 mph - 0.01 in   Mostly Cloudy
1:01 PM 82.4 °F 89.5 °F 75.2 °F 79% 30.10 in 10.0 mi SE 11.5 mph - N/A   Mostly Cloudy
1:09 PM 82.4 °F 89.5 °F 75.2 °F 79% 30.10 in 10.0 mi SSE 9.2 mph - N/A   Mostly Cloudy
1:53 PM 82.9 °F 90.8 °F 75.9 °F 79% 30.10 in 10.0 mi SSE 11.5 mph - N/A   Mostly Cloudy
2:53 PM 82.0 °F 89.4 °F 75.9 °F 82% 30.09 in 10.0 mi SSE 10.4 mph - N/A   Scattered Clouds
3:53 PM 79.0 °F - 73.9 °F 84% 30.09 in 8.0 mi South 11.5 mph 18.4 mph 0.06 in Rain Light Rain
4:04 PM 75.2 °F - 71.6 °F 89% 30.09 in 1.0 mi SE 9.2 mph 19.6 mph 0.13 in Rain Heavy Rain
4:37 PM 78.8 °F - 73.4 °F 83% 30.09 in 4.0 mi SSW 3.5 mph - 0.65 in Rain Light Rain
4:53 PM 80.1 °F 85.1 °F 75.0 °F 85% 30.09 in 9.0 mi SW 5.8 mph - 0.65 in Rain Light Rain
5:53 PM 82.0 °F 89.4 °F 75.9 °F 82% 30.08 in 10.0 mi Calm Calm - 0.00 in   Overcast
6:00 PM 82.4 °F 89.5 °F 75.2 °F 79% 30.08 in 10.0 mi South 3.5 mph - N/A   Mostly Cloudy
6:53 PM 81.0 °F 87.3 °F 75.9 °F 85% 30.08 in 10.0 mi South 4.6 mph - N/A   Mostly Cloudy
7:53 PM 80.1 °F 85.4 °F 75.9 °F 87% 30.11 in 10.0 mi Calm Calm - N/A   Clear
8:53 PM 78.1 °F - 75.0 °F 90% 30.12 in 10.0 mi NE 4.6 mph - N/A   Mostly Cloudy
9:20 PM 78.8 °F - 75.2 °F 89% 30.12 in 10.0 mi NE 3.5 mph - N/A   Mostly Cloudy
9:53 PM 77.0 °F - 73.9 °F 90% 30.12 in 10.0 mi NE 4.6 mph - N/A   Partly Cloudy
10:53 PM 77.0 °F - 73.9 °F 90% 30.14 in 10.0 mi NE 4.6 mph - N/A   Mostly Cloudy
11:11 PM 75.2 °F - 73.4 °F 94% 30.13 in 10.0 mi Calm Calm - N/A   Scattered Clouds
11:53 PM 75.9 °F - 73.0 °F 91% 30.13 in 10.0 mi NE 4.6 mph - N/A   Clear